User: anonymous   Login
Location: Unspecified
(0.0000°N, 0.0000°E)
Time: 07:49:28
(UTC+00:00)
Language:

STARLINK-5303 - Orbit

View from above orbital plane
View from above orbital plane
View from above satellite
View from above satellite

Ground track
Ground track

The orbit is defined by the following mean orbital elements,

1 55630U          26145.37631441 +.00000000 +00000-0 +44088-4 0 00007
2 55630  69.9998  11.1636 0002541 270.1229  89.9639 14.98331831    09
Epoch (UTC): 25 May 2026 09:01:53
Eccentricity: 0.0002541
inclination: 69.9998°
perigee height: 570 km
apogee height: 574 km
right ascension of ascending node: 11.1636°
argument of perigee: 270.1229°
revolutions per day: 14.98331831
mean anomaly at epoch: 89.9639°

The dashed part of the orbit path shows where the satellite is in the earth's shadow,  

DLR